Volver al catálogo

GXIBA-1

ActivoCienciaVLEO
NORAD 67685·PAYLOAD·🇲🇽 Mexico

Lanzado Nov 20, 1998 desde Baikonur Cosmodrome

Loading…

Próximos Pases (próximas 24 horas)

TLE

ActualizadoSource: Space-Track

Época: Sep 13, 2026, 21:21 UTC

1 67685U 98067YB  26256.88961024  .00087195  00000-0  63503-3 0  9991
2 67685  51.6218 203.0684 0008660 155.4995 204.6416 15.72523767 34193

Sigue GXIBA-1 en tiempo real con AllMySat

Download on the App Store